Weather History for Amsterdam, Netherlands

Change the Weather History Date:

Wednesday, December 25, 2013

  Actual Average Record
Temperature  
Mean Temperature 42 °F -  
Max Temperature 46 °F 41 °F 53 °F (1997)
Min Temperature 37 °F 33 °F 23 °F (2010)
Degree Days  
Heating Degree Days 24    
Moisture  
Dew Point 40 °F    
Average Humidity 87    
Maximum Humidity 100    
Minimum Humidity 69    
Precipitation  
Precipitation 0.00 in - - ()
Sea Level Pressure  
Sea Level Pressure 29.15 in    
Wind  
Wind Speed 13 mph ()    
Max Wind Speed 20 mph    
Max Gust Speed -    
Visibility 8.4 miles    
Events Rain    
Averages and records for this station are not official NWS values.
T = Trace of Precipitation, MM = Missing Value Source: Averaged Metar Reports

Daily Weather History Graph

Daily Weather History Graph

Search for Another Location

Airport:

Trip Planner

Search our weather history database for the weather conditions in past years. The results will help you decide how hot, cold, wet, or windy it might be!

Date:

Astronomy

Dec. 25, 2013 Rise Set
Actual Time 8:49 AM CET 4:32 PM CET
Civil Twilight 8:08 AM CET 5:13 PM CET
Nautical Twilight 7:24 AM CET 5:57 PM CET
Astronomical Twilight 6:42 AM CET 6:39 PM CET
Moon 12:16 AM CET (12/25) 12:10 PM CET (12/25)
Length of Visible Light 9h 04m
Length of Day
7h 42m
Waning Gibbous, 51% of the Moon is Illuminated
Dec 25
Waning Gibbous
Dec 25
Last Quarter
Jan 1
New
Jan 8
First Quarter
Jan 16
Full

Hourly Weather History & Observations

Time (CET) Temp. Windchill Dew Point Humidity Pressure Visibility Wind Dir Wind Speed Gust Speed Precip Events Conditions
12:00 AM 45 °F - 42 °F 85% 29.10 in 28 mi South 15.7 mph - -   Partly Cloudy
12:25 AM 44.6 °F 37.4 °F 41.0 °F 87% 29.06 in 6.2 mi South 16.1 mph - N/A   Partly Cloudy
12:55 AM 44.6 °F 38.4 °F 41.0 °F 87% 29.06 in 6.2 mi SSE 12.7 mph - N/A   Partly Cloudy
1:00 AM 45 °F - 42 °F 83% 29.05 in 28 mi SSE 13.4 mph - -   Partly Cloudy
1:25 AM 44.6 °F 37.4 °F 42.8 °F 93% 29.03 in 6.2 mi SSE 16.1 mph - N/A Rain Light Rain
1:55 AM 44.6 °F 38.1 °F 42.8 °F 93% 29.00 in 6.2 mi SSE 13.8 mph - N/A Rain Light Rain
2:00 AM 45 °F - 42 °F 87% 29.03 in 19 mi SSE 13.4 mph - - Rain Light Rain Showers
2:25 AM 44.6 °F 39.2 °F 42.8 °F 93% 29.00 in 6.2 mi SSE 10.4 mph - N/A Rain Light Rain
2:55 AM 44.6 °F 39.7 °F 44.6 °F 100% 29.00 in 5.0 mi SSE 9.2 mph - N/A Rain Light Rain
3:00 AM 45 °F - 44 °F 95% 29.03 in 7 mi SSE 8.9 mph - - Rain Heavy Rain
3:25 AM 44.6 °F 40.2 °F 44.6 °F 100% 29.00 in 5.0 mi SSE 8.1 mph - N/A Rain Light Rain
3:55 AM 44.6 °F 39.2 °F 44.6 °F 100% 28.97 in 6.2 mi SSE 10.4 mph - N/A   Light Drizzle
4:00 AM 45 °F - 44 °F 97% 29.00 in 11 mi SSE 8.9 mph - - Rain Light Drizzle
4:25 AM 46.4 °F 40.7 °F 44.6 °F 93% 28.97 in 6.2 mi South 12.7 mph - N/A   Light Drizzle
4:55 AM 46.4 °F 41.1 °F 44.6 °F 93% 28.97 in 6.2 mi South 11.5 mph - N/A   Mostly Cloudy
5:00 AM 46 °F - 45 °F 94% 28.99 in 11 mi South 11.2 mph - -   Unknown Precipitation
5:25 AM 46.4 °F 39.8 °F 44.6 °F 93% 28.97 in 6.2 mi SSW 16.1 mph - N/A   Scattered Clouds
5:55 AM 46.4 °F 39.0 °F 42.8 °F 87% 29.00 in 6.2 mi SW 19.6 mph - N/A   Mostly Cloudy
6:00 AM 47 °F - 43 °F 81% 29.03 in 28 mi SW 17.9 mph - -   Partly Cloudy
6:25 AM 44.6 °F 36.6 °F 41.0 °F 87% 29.06 in 6.2 mi SW 19.6 mph - N/A   Partly Cloudy
7:00 AM 45 °F - 41 °F 81% 29.08 in 22 mi SW 17.9 mph - -   Partly Cloudy
7:25 AM 44.6 °F 37.4 °F 41.0 °F 87% 29.09 in 6.2 mi SW 16.1 mph - N/A   Partly Cloudy
7:55 AM 44.6 °F 37.8 °F 41.0 °F 87% 29.09 in 6.2 mi SSW 15.0 mph - N/A   Partly Cloudy
8:00 AM 44 °F - 40 °F 80% 29.12 in 25 mi SSW 15.7 mph - -   Scattered Clouds
8:25 AM 42.8 °F 35.4 °F 41.0 °F 93% 29.12 in 6.2 mi SSW 15.0 mph - N/A   Partly Cloudy
8:55 AM 44.6 °F 36.9 °F 39.2 °F 81% 29.12 in 6.2 mi SSW 18.4 mph - N/A   Partly Cloudy
9:00 AM 44 °F - 40 °F 79% 29.14 in 22 mi SSW 17.9 mph - -   Scattered Clouds
9:25 AM 42.8 °F 35.4 °F 39.2 °F 87% 29.12 in 6.2 mi SSW 15.0 mph - N/A   Partly Cloudy
9:55 AM 42.8 °F 35.4 °F 39.2 °F 87% 29.15 in 6.2 mi SSW 15.0 mph - N/A   Partly Cloudy
10:00 AM 44 °F - 40 °F 80% 29.16 in 22 mi SSW 13.4 mph - -   Scattered Clouds
10:25 AM 44.6 °F 37.2 °F 39.2 °F 81% 29.15 in 6.2 mi SSW 17.3 mph - N/A   Partly Cloudy
10:55 AM 44.6 °F 37.2 °F 39.2 °F 81% 29.15 in 6.2 mi SSW 17.3 mph - N/A   Partly Cloudy
11:00 AM 44 °F - 39 °F 77% 29.18 in 22 mi SSW 17.9 mph - -  
11:25 AM 44.6 °F 36.9 °F 39.2 °F 81% 29.15 in 6.2 mi SSW 18.4 mph - N/A   Partly Cloudy
11:55 AM 44.6 °F 36.6 °F 39.2 °F 81% 29.15 in 6.2 mi SW 19.6 mph - N/A   Partly Cloudy
12:00 PM 46 °F - 39 °F 69% 29.18 in 19 mi SW 17.9 mph - -   Scattered Clouds
12:25 PM 46.4 °F 39.0 °F 39.2 °F 76% 29.18 in 6.2 mi SW 19.6 mph - N/A   Partly Cloudy
12:55 PM 46.4 °F 39.5 °F 39.2 °F 76% 29.15 in 6.2 mi SSW 17.3 mph - N/A   Partly Cloudy
1:00 PM 45 °F - 39 °F 71% 29.18 in 25 mi SSW 17.9 mph - -   Partly Cloudy
1:25 PM 46.4 °F 39.5 °F 39.2 °F 76% 29.18 in 6.2 mi SSW 17.3 mph - N/A   Partly Cloudy
1:55 PM 46.4 °F 39.8 °F 39.2 °F 76% 29.18 in 6.2 mi SSW 16.1 mph - N/A   Partly Cloudy
2:00 PM 46 °F - 39 °F 69% 29.20 in 19 mi SSW 15.7 mph - -   Scattered Clouds
2:25 PM 44.6 °F 37.8 °F 39.2 °F 81% 29.18 in 6.2 mi SSW 15.0 mph - N/A   Partly Cloudy
2:55 PM 44.6 °F 38.1 °F 39.2 °F 81% 29.18 in 6.2 mi SSW 13.8 mph - N/A   Partly Cloudy
3:00 PM 45 °F - 39 °F 72% 29.22 in 22 mi SSW 13.4 mph - -   Partly Cloudy
3:25 PM 44.6 °F 37.8 °F 39.2 °F 81% 29.21 in 6.2 mi South 15.0 mph - N/A   Partly Cloudy
3:55 PM 44.6 °F 38.4 °F 39.2 °F 81% 29.24 in 6.2 mi South 12.7 mph - N/A   Partly Cloudy
4:00 PM 44 °F - 38 °F 74% 29.25 in 22 mi South 11.2 mph - -   Mostly Cloudy
4:25 PM 42.8 °F 36.6 °F 39.2 °F 87% 29.24 in - South 11.5 mph - N/A   Clear
4:55 PM 42.8 °F 36.6 °F 37.4 °F 81% 29.24 in - South 11.5 mph - N/A   Clear
5:00 PM 42 °F - 38 °F 80% 29.26 in 22 mi South 8.9 mph - -  
5:25 PM 41.0 °F 35.2 °F 37.4 °F 87% 29.24 in - South 9.2 mph - N/A   Clear
5:55 PM 37.4 °F 32.8 °F 35.6 °F 93% 29.24 in - South 5.8 mph - N/A   Clear
6:00 PM 37 °F - 35 °F 91% 29.26 in 19 mi South 6.7 mph - -  
6:25 PM 37.4 °F 31.4 °F 35.6 °F 93% 29.24 in - South 8.1 mph - N/A   Clear
6:55 PM 37.4 °F 32.1 °F 35.6 °F 93% 29.24 in - SSE 6.9 mph - N/A   Clear
7:00 PM 38 °F - 36 °F 90% 29.26 in 15 mi SSE 6.7 mph - -   Partly Cloudy
7:25 PM 37.4 °F 31.4 °F 35.6 °F 93% 29.24 in - SSE 8.1 mph - N/A   Clear
7:55 PM 39.2 °F 33.0 °F 37.4 °F 93% 29.24 in - SSE 9.2 mph - N/A   Clear
8:00 PM 38 °F - 36 °F 92% 29.27 in 14 mi SSE 8.9 mph - -  
8:25 PM 39.2 °F 32.0 °F 37.4 °F 93% 29.27 in - SSE 11.5 mph - N/A   Clear
8:55 PM 39.2 °F 33.0 °F 37.4 °F 93% 29.27 in - SSE 9.2 mph - N/A   Clear
9:00 PM 38 °F - 37 °F 94% 29.28 in 14 mi SSE 8.9 mph - -   Mostly Cloudy
9:25 PM 39.2 °F 33.0 °F 37.4 °F 93% 29.27 in - SSE 9.2 mph - N/A   Clear
9:55 PM 37.4 °F 32.8 °F 35.6 °F 93% 29.27 in - SSE 5.8 mph - N/A   Clear
10:00 PM 37 °F - 35 °F 91% 29.28 in 12 mi SSE 6.7 mph - -   Scattered Clouds
10:25 PM 37.4 °F 30.8 °F 37.4 °F 100% 29.27 in - SE 9.2 mph - N/A   Clear
10:55 PM 37.4 °F 32.1 °F 35.6 °F 93% 29.27 in - SE 6.9 mph - N/A   Clear
11:00 PM 37 °F - 36 °F 92% 29.29 in 12 mi SE 6.7 mph - -   Partly Cloudy
11:25 PM 37.4 °F 30.8 °F 35.6 °F 93% 29.27 in - SE 9.2 mph - N/A   Clear
11:55 PM 37.4 °F 32.1 °F 35.6 °F 93% 29.27 in - SSE 6.9 mph - N/A   Clear